^^
Saratoga-Weather Station Historical Data
Daily Summary for June 24, 2021 Units:  Metric    English   Both
Daily Weekly Monthly Yearly Custom
  High: Low: Average:
Temperature: 19.7 °C 18.5 °C 18.9 °C
Dew Point: 14.6 °C 13.6 °C 14.1 °C
Humidity: 76% 72% 74%
Wind Speed: 3.2km/h 0km/h 0.5km/h
Wind Gust: 3.2km/h - -
Wind- - SSW
Pressure: 1009.8 hPa 1007.1 hPa -
Precipitation: 0.0 mm    
Historical Graphs
 
 
Tabular Data for June 24, 2021
Time Temperature Dew Point Pressure Wind Wind Speed Wind Gust Humidity Rainfall Rate (Hourly) solar
00:02 19.6 °C 14.4 °C 1009.5 hPa Calm   1.6 km/h 72% 0.0 mm 0 W/m2
00:07 19.7 °C 14.5 °C 1009.1 hPa Calm   1.6 km/h 72% 0.0 mm 0 W/m2
00:12 19.7 °C 14.5 °C 1009.1 hPa Calm   1.6 km/h 72% 0.0 mm 0 W/m2
00:17 19.6 °C 14.6 °C 1009.1 hPa Calm   3.2 km/h 73% 0.0 mm 0 W/m2
00:22 19.6 °C 14.6 °C 1009.1 hPa SE 1.4 km/h 1.6 km/h 73% 0.0 mm 0 W/m2
00:27 19.4 °C 14.6 °C 1009.5 hPa Calm     74% 0.0 mm 0 W/m2
00:32 19.3 °C 14.3 °C 1009.5 hPa Calm     73% 0.0 mm 0 W/m2
00:37 19.2 °C 14.2 °C 1009.8 hPa WSW 1.4 km/h 3.2 km/h 73% 0.0 mm 0 W/m2
00:42 19.2 °C 14.2 °C 1009.8 hPa SW 1.4 km/h 3.2 km/h 73% 0.0 mm 0 W/m2
00:47 19.1 °C 14.1 °C 1009.5 hPa SW 1.4 km/h 3.2 km/h 73% 0.0 mm 0 W/m2
00:52 19.1 °C 14.4 °C 1009.5 hPa SW 3.2 km/h 3.2 km/h 74% 0.0 mm 0 W/m2
00:57 19.1 °C 14.4 °C 1009.8 hPa SW 3.2 km/h 3.2 km/h 74% 0.0 mm 0 W/m2
01:02 19.1 °C 14.6 °C 1009.8 hPa Calm   3.2 km/h 75% 0.0 mm 0 W/m2
01:07 19.1 °C 14.6 °C 1009.8 hPa SW 1.4 km/h 3.2 km/h 75% 0.0 mm 0 W/m2
01:12 19.1 °C 14.6 °C 1009.8 hPa SW 1.4 km/h 1.6 km/h 75% 0.0 mm 0 W/m2
01:17 19 °C 14.5 °C 1009.8 hPa SW 1.4 km/h 3.2 km/h 75% 0.0 mm 0 W/m2
01:22 18.9 °C 14.2 °C 1009.5 hPa Calm     74% 0.0 mm 0 W/m2
01:27 18.8 °C 14.1 °C 1009.5 hPa Calm     74% 0.0 mm 0 W/m2
01:32 18.8 °C 14.1 °C 1009.1 hPa Calm     74% 0.0 mm 0 W/m2
01:37 18.7 °C 14 °C 1009.1 hPa Calm     74% 0.0 mm 0 W/m2
01:42 18.7 °C 14.2 °C 1009.1 hPa Calm     75% 0.0 mm 0 W/m2
01:47 18.6 °C 14.1 °C 1008.8 hPa Calm     75% 0.0 mm 0 W/m2
01:52 18.6 °C 14.3 °C 1008.8 hPa Calm     76% 0.0 mm 0 W/m2
01:57 18.6 °C 14.1 °C 1008.5 hPa Calm   1.6 km/h 75% 0.0 mm 0 W/m2
02:02 18.7 °C 14.2 °C 1008.5 hPa Calm     75% 0.0 mm 0 W/m2
02:07 18.7 °C 14 °C 1008.1 hPa Calm     74% 0.0 mm 0 W/m2
02:12 18.7 °C 14 °C 1008.1 hPa Calm   1.6 km/h 74% 0.0 mm 0 W/m2
02:17 18.7 °C 14 °C 1008.1 hPa South 1.4 km/h 3.2 km/h 74% 0.0 mm 0 W/m2
02:22 18.7 °C 13.8 °C 1008.1 hPa Calm   1.6 km/h 73% 0.0 mm 0 W/m2
02:27 18.7 °C 13.8 °C 1007.8 hPa Calm   3.2 km/h 73% 0.0 mm 0 W/m2
02:32 18.8 °C 13.9 °C 1007.8 hPa Calm     73% 0.0 mm 0 W/m2
02:37 18.8 °C 13.6 °C 1007.8 hPa Calm   1.6 km/h 72% 0.0 mm 0 W/m2
02:42 18.9 °C 13.7 °C 1007.5 hPa SSW 1.4 km/h 1.6 km/h 72% 0.0 mm 0 W/m2
02:47 19 °C 14 °C 1007.5 hPa SSW 3.2 km/h 3.2 km/h 73% 0.0 mm 0 W/m2
02:52 19 °C 14 °C 1007.8 hPa SSW 1.4 km/h 1.6 km/h 73% 0.0 mm 0 W/m2
02:57 18.9 °C 14.2 °C 1007.5 hPa Calm     74% 0.0 mm 0 W/m2
03:02 18.8 °C 14.1 °C 1007.5 hPa Calm     74% 0.0 mm 0 W/m2
03:07 18.8 °C 13.9 °C 1007.5 hPa Calm     73% 0.0 mm 0 W/m2
03:12 18.7 °C 13.8 °C 1007.5 hPa Calm     73% 0.0 mm 0 W/m2
03:17 18.7 °C 14 °C 1007.5 hPa Calm     74% 0.0 mm 0 W/m2
03:22 18.6 °C 13.9 °C 1007.1 hPa Calm     74% 0.0 mm 0 W/m2
03:27 18.6 °C 13.9 °C 1007.5 hPa South 1.4 km/h 3.2 km/h 74% 0.0 mm 0 W/m2
03:32 18.7 °C 13.8 °C 1007.5 hPa South 1.4 km/h 1.6 km/h 73% 0.0 mm 0 W/m2
03:37 18.8 °C 13.9 °C 1007.5 hPa South 1.4 km/h 1.6 km/h 73% 0.0 mm 0 W/m2
03:42 18.8 °C 13.9 °C 1007.5 hPa Calm   1.6 km/h 73% 0.0 mm 0 W/m2
03:47 18.8 °C 13.9 °C 1007.5 hPa Calm     73% 0.0 mm 0 W/m2
03:52 18.8 °C 13.9 °C 1007.5 hPa Calm     73% 0.0 mm 0 W/m2
03:57 18.8 °C 13.9 °C 1007.5 hPa Calm     73% 0.0 mm 0 W/m2
04:02 18.7 °C 13.8 °C 1007.5 hPa Calm     73% 0.0 mm 0 W/m2
04:07 18.7 °C 14 °C 1007.8 hPa Calm     74% 0.0 mm 0 W/m2
04:12 18.7 °C 14 °C 1008.1 hPa Calm     74% 0.0 mm 0 W/m2
04:17 18.6 °C 13.9 °C 1008.5 hPa Calm     74% 0.0 mm 0 W/m2
04:22 18.6 °C 14.1 °C 1008.1 hPa Calm     75% 0.0 mm 0 W/m2
04:27 18.6 °C 14.1 °C 1008.1 hPa Calm     75% 0.0 mm 0 W/m2
04:32 18.6 °C 14.3 °C 1008.1 hPa Calm     76% 0.0 mm 0 W/m2
04:37 18.5 °C 14 °C 1008.1 hPa Calm     75% 0.0 mm 0 W/m2
Juneau County Weather
Compliments of Weather Underground - 2 mb